Regional Weather Roundup
Issued by NWS

Home | Current Version | Previous Version | Graphics & Text | Print | Product List | Glossary On
Versions: 1 2 3 4 5 6 7 8 9 10 11 12 13 14 15 16 17 18 19 20 21 22 23 24 25 26 27 28 29 30 31 32 33 34 35 36 37 38 39 40 41 42 43 44 45 46 47 48 49 50
000
ASUS43 KLOT 092212
RWRIL

ILLINOIS REGIONAL WEATHER ROUNDUP
NATIONAL WEATHER SERVICE CHICAGO/ROMEOVILLE IL
400 PM CST FRI DEC 09 2016

NOTE: "FAIR" INDICATES FEW OR NO CLOUDS BELOW 12,000 FEET WITH NO
SIGNIFICANT WEATHER AND/OR OBSTRUCTIONS TO VISIBILITY.

* THESE STATIONS ARE NOT UNDER NWS QUALITY CONTROL. THEY ALSO MAY NOT
  REPORT WEATHER SUCH AS PRECIPITATION OR FOG.

ILZ001-002-007-009-015-016-024-092300-
NORTHWEST ILLINOIS

CITY           SKY/WX    TMP DP  RH WIND       PRES   REMARKS
MOLINE         PTCLDY    22  11  62 W8        30.55S WCI  12
STERLING*      PTCLDY    22  15  75 W8        30.54S WCI  12
SAVANNA*       CLEAR     23  12  63 W8        30.54R WCI  13
$$

ILZ003-004-008-010-011-017-018-092300-
NORTH CENTRAL ILLINOIS

CITY           SKY/WX    TMP DP  RH WIND       PRES   REMARKS
ROCKFORD       PTCLDY    22  12  65 W8        30.53R WCI  12
FREEPORT*      CLEAR     21  13  70 W6        30.53S WCI  13
ROCHELLE*      CLEAR     21  14  73 W6        30.52S WCI  13
DE KALB*       CLEAR     21  13  71 W9        30.51S WCI  10
$$

ILZ005-006-012>014-019>023-092300-
NORTHEAST ILLINOIS

CITY           SKY/WX    TMP DP  RH WIND       PRES   REMARKS
CHICAGO-OHARE  MOCLDY    23  12  62 W9        30.49S WCI  13
CHICAGO-MIDWAY MOCLDY    24  11  57 W10       30.51S WCI  14
AURORA         PTCLDY    21  13  71 W8        30.53R WCI  11
LANSING*       PTCLDY    23  15  72 W10       30.52R WCI  12
JOLIET*        PTCLDY    25  14  64 W5        30.53S WCI  19
WAUKEGAN       CLEAR     24   9  52 VRB5      30.47S WCI  18
DUPAGE AIRPORT CLEAR     22  11  62 W10       30.50S WCI  11
KANKAKEE*      CLOUDY    25  15  65 W8        30.54S WCI  16
WHEELING       PTCLDY    25  11  55 W8        30.51R WCI  16
MORRIS*        MOCLDY    24  15  69 NW7       30.53S WCI  15
ROMEOVILLE*    MOCLDY    22  17  78 W12       30.52S WCI  11
NORTHERLY ISL    N/A     25  13  60 W7          N/A  WCI  17
$$

LMZ740>746-092300-
SOUTHERN LAKE MICHIGAN

STATION/POSITION SKY/WX   TEMP    WIND        PRES    VSBY  WAVE
                          AIR SEA DIR/SP/G                  HT/PER
                          (F)     (DEG/KT/KT) (MB)    (MI)  (FT/S)
HARRISON CRIB              26     260/ 12/ 14   N/A
BURNHAM HARBOR             26     270/  7/ 11   N/A
CALUMET HARBOR             25     230/  6/  9 1032.3R
BURNS HARBOR               26     260/ 10/ 16 1033.2R
$$

ILZ025>027-034>036-040-047-049-050-058-095>099-092300-
WEST-CENTRAL ILLINOIS

CITY           SKY/WX    TMP DP  RH WIND       PRES   REMARKS
QUINCY         PTCLDY    22  13  68 NW5       30.57R WCI  16
GALESBURG*     CLOUDY    22  14  70 W7        30.55S WCI  14
MACOMB*        CLOUDY    23  14  69 W7        30.59R WCI  15
JACKSONVILLE*  CLOUDY    24  14  66 W7        30.58S WCI  15
PITTSFIELD*    CLOUDY    25  14  63 W5        30.58S WCI  19
$$

ILZ028>032-037-038-041>044-048-051>054-059>061-092300-
CENTRAL ILLINOIS

CITY           SKY/WX    TMP DP  RH WIND       PRES   REMARKS
PONTIAC        CLOUDY    26  16  67 W7        30.55R WCI  18
BLOOMINGTON    FLURRIES  24  15  68 W8        30.54R WCI  15
DECATUR        CLOUDY    23  13  65 W5        30.57R WCI  17
PEORIA         MOCLDY    24  12  60 W6        30.56R WCI  17
LACON*         CLOUDY    24  15  68 W7        30.54S WCI  16
LINCOLN*       CLOUDY    24  15  68 W3        30.57S
SPRINGFIELD    CLOUDY    25  15  66 W7        30.58R WCI  17
TAYLORVILLE    CLOUDY    23  15  70 CALM      30.58F
$$

ILZ033-039-045-046-055>057-062-063-092300-
EAST-CENTRAL ILLINOIS

CITY           SKY/WX    TMP DP  RH WIND       PRES   REMARKS
CHAMPAIGN      CLOUDY    25  13  60 W10       30.55R WCI  15
RANTOUL*       CLOUDY    27  18  67 W7        30.54R WCI  20
MATTOON        CLOUDY    24  14  65 W7        30.56R WCI  16
PARIS*         CLOUDY    26  16  66 SW8       30.56R WCI  17
$$

ILZ079-100>102-092300-
SOUTHWEST ILLINOIS

CITY           SKY/WX    TMP DP  RH WIND       PRES   REMARKS
ALTON          MOCLDY    25  14  63 W6        30.59S WCI  18
BELLEVILLE     CLEAR     29  12  47 NW7       30.58R WCI  22
CAHOKIA*       CLEAR     30  11  45 NW7       30.59S WCI  23
SPARTA*        CLEAR     28  13  52 CALM      30.59F
$$

ILZ064>066-069>071-074>076-080>082-084>086-088>090-092>094-092300-
SOUTH-CENTRAL ILLINOIS

CITY           SKY/WX    TMP DP  RH WIND       PRES   REMARKS
CARBONDALE     CLEAR     30  13  49 NW5       30.59S WCI  25
CAIRO*         CLEAR     31  16  53 SW3       30.60F
EFFINGHAM*     CLOUDY    26  18  73 W9        30.61S WCI  16
MARION         PTCLDY    30  14  51 W12       30.60S WCI  21
CENTRALIA*     PTCLDY    27  16  63 NW3       30.58S
SALEM*         CLOUDY    28  15  56 W7        30.58F WCI  21
METROPOLIS*    CLEAR     32  15  49 CALM      30.60S
$$

ILZ067-068-072-073-078-083-087-091-092300-
SOUTHEAST ILLINOIS

CITY           SKY/WX    TMP DP  RH WIND       PRES   REMARKS
LAWRENCEVILLE  CLOUDY    26  15  63 W7        30.60R WCI  18
FLORA*         CLOUDY    28  15  58 W6        30.59F WCI  22
FAIRFIELD*     MOCLDY    29  15  56 CALM      30.58F
HARRISBURG*    CLEAR     29  16  57 W6        30.60S WCI  23
ROBINSON*      CLOUDY    25  16  67 W10       30.60S WCI  15
CARMI*         MOCLDY    29  18  61 NW6       30.59S WCI  23
$$

ABBREVIATIONS USED IN REMARKS
   TC - TEMPERATURE IN CELSIUS
  WCI - WIND CHILL INDEX
   HX - HEAT INDEX
  VSB - VISIBILITY
$$





USA.gov is the U.S. government's official web portal to all federal, state and local government web resources and services.